Simultaneous Nadir Overpasses (SNOs) Predictions

Prediction of SNOs between AQUA and METOP-A Satellite Orbit:

Table of predicted SNOs for the next 14.0 days since TLE Epoch: 11/29/2019
Index Date (AQUA) Time (AQUA) Lat,Lon (AQUA) SZA (AQUA ) Date (METOP-A) Time (METOP-A) Lat,Lon (METOP-A) SZA (METOP-A ) Distance(km) Time Diff (sec)
1 12/02/2019 04:42:16 -75.54, -80.55 82.53 12/02/2019 04:41:04 -75.47, -81.29 82.57 22.15 72
2 12/02/2019 05:31:46 75.67, 86.72 97.61 12/02/2019 05:31:40 75.66, 86.61 97.61 3.25 6
3 12/02/2019 06:21:13 -75.74,-105.84 82.31 12/02/2019 06:22:20 -75.73,-105.82 82.32 0.76 67
4 12/05/2019 00:16:31 -75.63, -14.35 82.04 12/05/2019 00:15:23 -75.63, -14.44 82.02 2.44 68
5 12/05/2019 01:06:00 75.70, 153.06 98.06 12/05/2019 01:06:01 75.72, 153.17 98.07 3.30 1
6 12/05/2019 01:55:28 -75.82, -39.65 81.82 12/05/2019 01:56:40 -75.84, -39.10 81.82 15.00 72
7 12/07/2019 19:50:46 -75.67, 51.97 81.64 12/07/2019 19:49:46 -75.65, 51.97 81.66 2.57 60
8 12/07/2019 20:40:14 75.69,-140.47 98.39 12/07/2019 20:40:25 75.68,-140.58 98.39 3.38 11
9 12/07/2019 21:29:49 -76.15, 25.77 81.10 12/07/2019 21:30:56 -76.19, 28.38 81.16 69.46 67
10 12/10/2019 15:25:00 -75.67, 118.42 81.35 12/10/2019 15:24:09 -75.66, 118.37 81.35 1.54 51
11 12/10/2019 16:14:29 75.74, -74.16 98.73 12/10/2019 16:14:47 75.74, -74.05 98.73 3.18 18
12 12/13/2019 10:59:13 -75.67,-175.15 81.12 12/13/2019 10:58:31 -75.67,-175.24 81.10 2.42 42
13 12/13/2019 11:48:42 75.74, -7.73 98.97 12/13/2019 11:49:09 75.75, -7.66 98.97 1.93 27




NCC Satellite Simultaneous Nadir Overpasses (SNOs) Prediction Service
